When you browse on this site, cookies collect data to enhance your experience and personalize the content and advertising you see.
Visit our Privacy Policy to learn more. By continuing to use the site, you agree to this use of cookies and data.
  • en Belgique
  • Liste des pays
  • À 7 jours
  • Température de l'eau
  • Carte météo
  • Widgets météo
  • user-avatar
    Se connecter

    Météo par heure à Mazyr

    Ce jour, 1 Juin, Lundi

    Heure Température Précipitation Vent Pression Humidité
    00:00 +8°C° 0 mm 4 m/s 743 mmHg 93%
    01:00 +7°C° 0 mm 4 m/s 743 mmHg 93%
    02:00 +8°C° 0 mm 3 m/s 744 mmHg 95%
    03:00 +7°C° 0.1 mm 4 m/s 744 mmHg 95%
    04:00 +8°C° 0.1 mm 4 m/s 743 mmHg 94%
    05:00 +8°C° 0.1 mm 5 m/s 743 mmHg 93%
    06:00 +8°C° 0 mm 5 m/s 744 mmHg 89%
    07:00 +9°C° 0 mm 5 m/s 744 mmHg 85%
    08:00 +9°C° 0 mm 5 m/s 744 mmHg 80%
    09:00 +10°C° 0.3 mm 5 m/s 744 mmHg 74%
    10:00 +11°C° 0.3 mm 6 m/s 744 mmHg 69%
    11:00 +11°C° 0.3 mm 6 m/s 744 mmHg 63%
    12:00 +11°C° 0.5 mm 6 m/s 744 mmHg 65%
    13:00 +11°C° 0.5 mm 6 m/s 743 mmHg 66%
    14:00 +11°C° 0.5 mm 6 m/s 743 mmHg 68%
    15:00 +11°C° 0.6 mm 6 m/s 743 mmHg 72%
    16:00 +10°C° 0.6 mm 6 m/s 743 mmHg 76%
    17:00 +10°C° 0.6 mm 6 m/s 743 mmHg 80%
    18:00 +9°C° 0.2 mm 6 m/s 743 mmHg 85%
    19:00 +7°C° 0.2 mm 5 m/s 742 mmHg 89%
    20:00 +6°C° 0.2 mm 4 m/s 742 mmHg 93%
    21:00 +7°C° 0.4 mm 4 m/s 742 mmHg 94%
    22:00 +7°C° 0.4 mm 4 m/s 741 mmHg 95%
    23:00 +7°C° 0.4 mm 4 m/s 741 mmHg 96%

    Demain, 2 Juin, Mardi

    Heure Température Précipitation Vent Pression Humidité
    00:00 +8°C° 0.6 mm 3 m/s 740 mmHg 96%
    01:00 +8°C° 0.6 mm 3 m/s 740 mmHg 97%
    02:00 +8°C° 0.6 mm 2 m/s 739 mmHg 97%
    03:00 +8°C° 0.5 mm 2 m/s 738 mmHg 97%
    04:00 +8°C° 0.5 mm 2 m/s 738 mmHg 97%
    05:00 +9°C° 0.5 mm 1 m/s 737 mmHg 97%
    06:00 +10°C° 0.3 mm 1 m/s 737 mmHg 96%
    07:00 +10°C° 0.3 mm 1 m/s 737 mmHg 94%
    08:00 +11°C° 0.3 mm 1 m/s 737 mmHg 92%
    09:00 +12°C° 0.5 mm 1 m/s 737 mmHg 88%
    10:00 +13°C° 0.5 mm 2 m/s 737 mmHg 85%
    11:00 +14°C° 0.5 mm 2 m/s 737 mmHg 81%
    12:00 +13°C° 0.6 mm 3 m/s 737 mmHg 77%
    13:00 +14°C° 0.6 mm 4 m/s 737 mmHg 74%
    14:00 +14°C° 0.6 mm 5 m/s 737 mmHg 70%
    15:00 +14°C° 0.3 mm 5 m/s 737 mmHg 70%
    16:00 +14°C° 0.3 mm 4 m/s 737 mmHg 70%
    17:00 +14°C° 0.3 mm 4 m/s 737 mmHg 70%
    18:00 +12°C° 0.1 mm 4 m/s 737 mmHg 75%
    19:00 +11°C° 0.1 mm 4 m/s 738 mmHg 81%
    20:00 +10°C° 0.1 mm 3 m/s 738 mmHg 87%
    21:00 +9°C° 0 mm 3 m/s 738 mmHg 90%
    22:00 +8°C° 0 mm 3 m/s 738 mmHg 92%
    23:00 +8°C° 0 mm 3 m/s 738 mmHg 94%

    Après-demain, 3 Juin, Mercredi

    Heure Température Précipitation Vent Pression Humidité
    00:00 +7°C° 0 mm 3 m/s 738 mmHg 94%
    01:00 +7°C° 0 mm 3 m/s 738 mmHg 94%
    02:00 +5°C° 0 mm 3 m/s 739 mmHg 94%
    03:00 +5°C° 0 mm 3 m/s 738 mmHg 94%
    04:00 +5°C° 0 mm 3 m/s 738 mmHg 94%
    05:00 +5°C° 0 mm 3 m/s 738 mmHg 94%
    06:00 +7°C° 0.1 mm 4 m/s 738 mmHg 91%
    07:00 +8°C° 0.1 mm 4 m/s 738 mmHg 88%
    08:00 +10°C° 0.1 mm 4 m/s 739 mmHg 85%
    09:00 +10°C° 0.3 mm 4 m/s 738 mmHg 84%
    10:00 +11°C° 0.3 mm 4 m/s 738 mmHg 83%
    11:00 +11°C° 0.3 mm 4 m/s 738 mmHg 82%
    12:00 +12°C° 0.2 mm 4 m/s 738 mmHg 77%
    13:00 +13°C° 0.2 mm 4 m/s 738 mmHg 72%
    14:00 +15°C° 0.2 mm 4 m/s 738 mmHg 66%
    15:00 +15°C° 0.3 mm 4 m/s 738 mmHg 68%
    16:00 +15°C° 0.3 mm 4 m/s 737 mmHg 70%
    17:00 +15°C° 0.3 mm 4 m/s 737 mmHg 72%
    18:00 +13°C° 0.2 mm 3 m/s 737 mmHg 78%
    19:00 +13°C° 0.2 mm 2 m/s 737 mmHg 85%
    20:00 +12°C° 0.2 mm 2 m/s 737 mmHg 91%
    21:00 +10°C° 0 mm 2 m/s 737 mmHg 92%
    22:00 +9°C° 0 mm 2 m/s 737 mmHg 93%
    23:00 +8°C° 0 mm 2 m/s 737 mmHg 94%

    4 Juin, Jeudi

    Heure Température Précipitation Vent Pression Humidité
    00:00 +8°C° 0 mm 2 m/s 737 mmHg 94%
    01:00 +8°C° 0 mm 2 m/s 737 mmHg 94%
    02:00 +7°C° 0 mm 2 m/s 737 mmHg 94%
    03:00 +7°C° 0 mm 2 m/s 737 mmHg 95%
    04:00 +7°C° 0 mm 2 m/s 737 mmHg 95%
    05:00 +7°C° 0 mm 2 m/s 737 mmHg 96%
    06:00 +9°C° 0 mm 2 m/s 737 mmHg 91%
    07:00 +12°C° 0 mm 2 m/s 737 mmHg 87%
    08:00 +12°C° 0 mm 3 m/s 737 mmHg 82%
    09:00 +14°C° 0.2 mm 3 m/s 737 mmHg 77%
    10:00 +16°C° 0.2 mm 3 m/s 737 mmHg 72%
    11:00 +17°C° 0.2 mm 4 m/s 737 mmHg 67%
    12:00 +17°C° 0.5 mm 4 m/s 737 mmHg 68%
    13:00 +17°C° 0.5 mm 4 m/s 737 mmHg 69%
    14:00 +16°C° 0.5 mm 5 m/s 736 mmHg 70%
    15:00 +16°C° 0.5 mm 5 m/s 736 mmHg 72%
    16:00 +16°C° 0.5 mm 5 m/s 736 mmHg 74%
    17:00 +15°C° 0.5 mm 5 m/s 737 mmHg 75%
    18:00 +14°C° 0.3 mm 4 m/s 736 mmHg 81%
    19:00 +13°C° 0.3 mm 3 m/s 736 mmHg 86%
    20:00 +12°C° 0.3 mm 3 m/s 736 mmHg 91%
    21:00 +11°C° 0.6 mm 3 m/s 737 mmHg 92%
    22:00 +11°C° 0.6 mm 3 m/s 737 mmHg 94%
    23:00 +10°C° 0.6 mm 3 m/s 737 mmHg 95%

    5 Juin, Vendredi

    Heure Température Précipitation Vent Pression Humidité
    00:00 +10°C° 0.1 mm 3 m/s 737 mmHg 95%
    01:00 +10°C° 0.1 mm 3 m/s 737 mmHg 96%
    02:00 +9°C° 0.1 mm 2 m/s 737 mmHg 96%
    03:00 +9°C° 0 mm 2 m/s 737 mmHg 96%
    04:00 +9°C° 0 mm 2 m/s 737 mmHg 97%
    05:00 +9°C° 0 mm 2 m/s 738 mmHg 97%
    06:00 +12°C° 0 mm 2 m/s 738 mmHg 92%
    07:00 +14°C° 0 mm 2 m/s 738 mmHg 87%
    08:00 +16°C° 0 mm 2 m/s 738 mmHg 83%
    09:00 +17°C° 0 mm 2 m/s 738 mmHg 74%
    10:00 +19°C° 0 mm 3 m/s 738 mmHg 66%
    11:00 +21°C° 0 mm 3 m/s 738 mmHg 58%
    12:00 +22°C° 0 mm 3 m/s 738 mmHg 56%
    13:00 +22°C° 0 mm 3 m/s 738 mmHg 53%
    14:00 +24°C° 0 mm 3 m/s 738 mmHg 51%
    15:00 +24°C° 0 mm 3 m/s 738 mmHg 54%
    16:00 +24°C° 0 mm 2 m/s 738 mmHg 56%
    17:00 +24°C° 0 mm 2 m/s 739 mmHg 59%
    18:00 +21°C° 0.1 mm 2 m/s 739 mmHg 67%
    19:00 +19°C° 0.1 mm 2 m/s 739 mmHg 76%
    20:00 +17°C° 0.1 mm 2 m/s 739 mmHg 84%
    21:00 +17°C° 0 mm 2 m/s 739 mmHg 87%
    22:00 +16°C° 0 mm 2 m/s 739 mmHg 90%
    23:00 +15°C° 0 mm 2 m/s 739 mmHg 93%

    6 Juin, Samedi

    Heure Température Précipitation Vent Pression Humidité
    00:00 +15°C° 0 mm 2 m/s 739 mmHg 94%
    01:00 +15°C° 0 mm 2 m/s 739 mmHg 94%
    02:00 +14°C° 0 mm 2 m/s 739 mmHg 94%
    03:00 +14°C° 0 mm 2 m/s 739 mmHg 94%
    04:00 +15°C° 0 mm 2 m/s 739 mmHg 94%
    05:00 +15°C° 0 mm 2 m/s 739 mmHg 93%
    06:00 +16°C° 0 mm 3 m/s 739 mmHg 88%
    07:00 +18°C° 0 mm 3 m/s 739 mmHg 83%
    08:00 +20°C° 0 mm 3 m/s 739 mmHg 79%
    09:00 +22°C° 0 mm 4 m/s 739 mmHg 74%
    10:00 +23°C° 0 mm 4 m/s 739 mmHg 69%
    11:00 +26°C° 0 mm 5 m/s 739 mmHg 64%
    12:00 +26°C° 0.7 mm 5 m/s 739 mmHg 66%
    13:00 +26°C° 0.7 mm 5 m/s 739 mmHg 67%
    14:00 +26°C° 0.7 mm 5 m/s 739 mmHg 68%
    15:00 +23°C° 1.1 mm 4 m/s 738 mmHg 74%
    16:00 +22°C° 1.1 mm 3 m/s 738 mmHg 81%
    17:00 +20°C° 1.1 mm 2 m/s 738 mmHg 87%
    18:00 +19°C° 0.1 mm 2 m/s 738 mmHg 88%
    19:00 +19°C° 0.1 mm 1 m/s 738 mmHg 90%
    20:00 +19°C° 0.1 mm 1 m/s 738 mmHg 92%
    21:00 +18°C° 0.1 mm 1 m/s 738 mmHg 92%
    22:00 +18°C° 0.1 mm 1 m/s 739 mmHg 93%
    23:00 +16°C° 0.1 mm 1 m/s 739 mmHg 94%
    Voir plus